Location: Kuców
(51.2333°N, 19.3000°E)
Time: 14:59:05
(UTC+00:00)

Daily predictions for brighter satellites

Satellite Brightness Start Highest point End
(mag) Time Altitude Azimuth Time Altitude Azimuth Time Altitude Azimuth
SPOT 3 Rocket 3.7 19:38:01 10° SSE 19:43:07 69° ENE 19:48:17 10° N
Cosmos 1943 Rocket 3.0 19:38:50 10° SSE 19:43:40 30° ESE 19:48:31 10° NE
Timation 1 Rocket 4.4 19:39:54 10° NNW 19:45:56 89° ENE 19:51:53 10° SSE
Cosmos 1743 Rocket 3.6 19:43:49 10° N 19:48:11 87° W 19:52:34 10° S
Lacrosse 5 rocket 0.9 19:46:33 10° WSW 19:50:09 90° SSE 19:53:42 10° ENE
Cosmos 1745 Rocket 4.2 19:44:01 10° N 19:50:18 66° ENE 19:56:37 10° SSE
YAOGAN 11 4.1 19:49:44 10° NNE 19:54:11 79° ESE 19:58:32 10° SSW
Meteor 1-22 Rocket 4.2 19:55:47 10° NNW 20:01:05 83° W 20:06:23 10° S
USA 245 2.4 19:59:23 10° SSE 20:02:19 83° W 20:04:50 10° NNW
Cosmos 1624 Rocket 4.4 19:59:40 10° NNW 20:04:57 59° ENE 20:10:11 10° SE
Cosmos 1680 Rocket 4.0 20:02:38 10° S 20:07:24 39° ESE 20:12:13 10° NE
Cosmos 1633 Rocket 3.2 20:05:48 10° N 20:10:11 66° ENE 20:14:32 10° SSE
Okean 2 4.4 20:07:54 10° SSE 20:11:07 27° E 20:14:26 10° NNE
Cosmos 2056 Rocket 3.6 20:08:55 10° NNW 20:14:01 70° ENE 20:18:52 11° SSE
USA 186 3.0 20:12:28 10° SSW 20:14:06 19° W 20:15:42 10° NW
NOSS 2-3 (D) 4.3 20:10:34 10° WSW 20:14:09 49° NW 20:18:02 10° NE
Okean-O 4.0 20:11:17 10° SSW 20:15:15 34° W 20:19:15 10° NNW
Cosmos 1400 Rocket 3.9 20:12:34 10° N 20:15:44 27° ENE 20:18:44 11° SE
Meteor 1-23 Rocket 4.4 20:13:23 10° S 20:18:45 53° E 20:24:10 10° NNE
Iridium 45 4.1 20:16:36 10° S 20:19:40 86° E 20:22:50 10° N
USA 215 3.7 20:16:44 10° E 20:23:10 65° NNE 20:29:38 10° WNW
Cosmos 1420 Rocket 4.5 20:20:10 10° NNW 20:25:16 56° WSW 20:30:18 10° S
NOSS 2-1 (E) 3.8 20:25:51 10° S 20:29:19 30° SE 20:32:13 10° ENE
Meteor 1-15 Rocket 4.5 20:23:46 10° NNW 20:29:32 73° W 20:35:09 10° S
NOSS 2-3 (C) 4.2 20:28:25 10° WSW 20:31:43 48° NW 20:35:25 10° NE
SWARM A 4.4 20:29:04 10° N 20:32:17 69° W 20:35:24 11° S
Cosmos 2344 3.4 20:27:19 10° SSW 20:35:04 72° SE 20:42:15 10° NE
Ariane Rocket 3.5 20:32:16 10° S 20:37:15 57° W 20:42:16 10° NNW
USA 276 2.7 20:39:05 10° SSW 20:40:59 22° SSE 20:43:05 10° E
CZ-4B R/B 3.9 20:37:57 10° SSW 20:41:41 39° W 20:45:29 10° NNW
Cosmos 2315 Rocket 4.0 20:37:39 10° S 20:43:53 84° E 20:50:08 10° N
Okean O Rocket 3.9 20:41:11 10° SW 20:44:19 19° W 20:47:29 10° NW
Iridium 4 Rocket 4.0 20:39:27 10° SSW 20:44:25 53° W 20:49:00 10° N
Cosmos 1833 Rocket 4.3 20:40:45 10° NW 20:45:22 27° WSW 20:49:59 10° SSW
USA 59 Rocket -0.9 20:44:30 10° SW 20:48:02 69° SE 20:51:00 10° NE
Cosmos 923 Rocket 4.2 20:45:13 10° SSW 20:50:27 76° WNW 20:55:41 10° NNE
Cosmos 1470 Rocket 3.7 20:46:28 10° NNW 20:50:55 75° W 20:54:41 14° S
Lacrosse 4 Rocket 3.8 20:48:19 10° NNW 20:51:16 18° NNE 20:54:13 10° ENE
CZ-4B R/B 4.3 20:47:09 10° S 20:52:07 48° W 20:57:13 10° NNW
NOSS 2-1 (D) 2.8 20:49:15 10° SSW 20:52:53 63° SE 20:55:55 10° NE
Helios 1B rocket 3.6 20:51:01 12° ESE 20:53:27 25° ENE 20:56:21 10° N
Cosmos 1953 4.2 20:54:53 10° NW 20:57:38 21° W 21:00:23 10° SW
Cosmos 2112 Rocket 3.9 20:52:48 10° SSW 20:57:57 80° ESE 21:03:10 10° NNE
Cosmos 1933 Rocket 3.7 20:53:59 10° N 20:58:16 61° ENE 21:01:24 18° SSE
Cosmos 1328 Rocket 4.3 20:55:08 10° SSW 20:59:20 50° WNW 21:03:33 10° N
Cosmos 1110 Rocket 4.0 20:56:04 10° NNW 21:01:16 75° ENE 21:05:16 17° SSE
Okean 3 3.7 20:59:11 18° SSE 21:01:54 49° E 21:05:49 10° NNE
S3M 4.4 20:55:59 10° SSW 21:02:02 61° WNW 21:08:12 10° N
Cosmos 1441 Rocket 3.4 21:00:47 21° SSE 21:02:27 38° E 21:05:30 10° NNE
Cosmos 1812 1.6 21:01:18 10° N 21:02:54 32° ENE 21:03:01 32° E
USA 308 3.7 21:07:45 16° ESE 21:07:45 16° ESE 21:09:23 10° E
CZ-2C R/B 3.2 21:05:29 16° SSW 21:07:15 32° W 21:09:47 10° NNW
SWAS 4.5 21:05:18 15° S 21:08:31 51° ESE 21:12:28 10° NE
BREEZE-M R/B 3.9 21:04:39 10° WSW 21:09:11 68° SSE 21:18:29 10° E
Cosmos 2082 Rocket 2.3 21:03:42 10° NNW 21:09:20 74° WSW 21:13:35 18° SSE
Cosmos 1452 Rocket 3.8 21:06:20 10° NNW 21:11:34 62° ENE 21:15:39 17° SE
NOSS 2-1 (C) 2.7 21:08:58 10° SW 21:12:38 82° SE 21:15:41 10° NE
Cosmos 2278 Rocket 2.3 21:09:27 10° SSW 21:15:08 83° WNW 21:20:51 10° NNE
Cosmos 494 Rocket 4.2 21:10:31 10° SSW 21:15:45 75° WNW 21:21:02 10° NNE
Cosmos 2184 Rocket 4.1 21:09:28 10° N 21:15:46 71° ENE 21:20:39 18° SSE
Cosmos 2154 Rocket 4.1 21:10:45 10° N 21:16:57 67° ENE 21:21:41 18° SSE
Helios 1A 3.0 21:14:12 10° NNE 21:18:08 58° ESE 21:20:40 21° S
SL-4 R/B 3.3 21:22:40 16° ESE 21:22:40 16° ESE 21:23:45 10° E
Timation 2 Rocket 4.0 21:15:53 10° SSW 21:22:11 74° ESE 21:28:49 10° NE
Cosmos 1174 3.7 21:21:42 16° SSW 21:24:41 53° SE 21:27:59 10° NE
USA 238 DEB 3.8 21:18:45 10° SW 21:24:58 75° NW 21:31:55 10° NE
USA 238 3.8 21:18:58 10° SW 21:25:11 76° NW 21:32:08 10° NE
Cosmos 1331 Rocket 4.0 21:20:27 10° NNW 21:25:37 77° WSW 21:29:12 20° SSE
Lacrosse 5 rocket 2.8 21:23:40 10° WNW 21:26:58 34° N 21:30:12 10° ENE
Cosmos 1943 Rocket 2.9 21:21:34 10° SW 21:27:07 56° NW 21:32:41 10° NNE
Cosmos 1869 Rocket 3.5 21:26:13 10° N 21:30:33 87° WSW 21:33:18 22° S
SL-8 R/B 3.9 21:26:14 10° SW 21:30:43 44° SSE 21:35:14 10° E
ARIANE 5 R/B 3.1 21:27:49 19° SE 21:30:47 53° ENE 21:35:06 10° N
ARGOS Delta rocket 4.1 21:27:01 10° NNE 21:32:17 66° E 21:35:46 20° S
CZ-2C R/B 4.2 21:27:47 10° NNE 21:32:21 47° E 21:35:10 21° SSE
Cosmos 546 4.4 21:29:06 10° W 21:32:53 82° S 21:36:40 10° E
CZ-2C R/B 4.5 21:31:40 10° NE 21:36:01 25° E 21:38:51 16° SE
BREEZE-M DEB (TANK) 3.9 21:20:21 10° W 21:37:53 80° S 21:42:40 10° ESE
CZ-2C R/B 4.0 21:34:58 10° ESE 21:39:26 31° ENE 21:44:01 10° N
Cosmos 1515 Rocket 4.4 21:36:36 11° SSW 21:40:36 46° WNW 21:44:47 10° N
Cosmos 1733 Rocket 3.4 21:38:20 10° N 21:42:34 53° ENE 21:45:08 22° SE
USA 81 4.4 21:40:11 10° NNW 21:45:21 59° W 21:49:12 18° SSW
ALOS 2 2.8 21:44:00 22° SSE 21:46:45 65° ENE 21:51:07 10° N
Cosmos 1707 Rocket 4.4 21:45:49 21° SE 21:48:05 36° E 21:52:08 10° NNE
Cosmos 1048 Rocket 4.1 21:43:50 12° SSW 21:48:41 80° WNW 21:54:01 10° NNE
Cosmos 2228 Rocket 4.4 21:48:39 18° SE 21:50:52 28° E 21:54:37 10° NNE
Cosmos 1400 Rocket 4.2 21:47:54 10° NW 21:51:00 26° W 21:53:10 15° SW
COSMOS 2406 3.2 21:45:49 10° NNW 21:51:31 73° WSW 21:55:18 22° SSE
Cosmos 2369 Rocket 3.0 21:50:40 21° SSE 21:53:34 35° ESE 21:58:35 10° NE
NOSS 7 (E) 4.1 21:52:11 10° NW 21:55:22 73° SW 21:56:45 31° SSE
USA 290 3.2 21:54:08 10° NNW 21:57:06 39° ENE 21:58:47 21° ESE
Cosmos 1862 Rocket 3.9 21:57:21 25° SSE 21:59:34 50° E 22:03:44 10° NNE
ARIANE 6 FM1 Upper Stage 3.0 21:58:06 25° S 22:00:11 45° SE 22:04:07 10° ENE
Cosmos 1315 Rocket 3.3 21:57:40 10° N 22:01:22 46° ENE 22:03:25 23° SE
Cosmos 972 Rocket 4.0 21:56:59 10° NNW 22:02:38 85° WSW 22:05:53 23° SSE
Cosmos 1656 Rocket 3.6 21:59:36 16° SSW 22:04:03 83° ESE 22:09:41 10° NNE
USA 215 3.2 22:00:17 13° SE 22:06:13 68° SW 22:12:44 10° WNW
Cosmos 1302 Rocket 4.0 22:05:09 10° NNW 22:10:27 75° WSW 22:13:43 24° SSE
USA 276 1.5 22:10:53 10° WSW 22:13:22 62° S 22:16:09 10° E
Okean 1-7 3.0 22:12:10 27° S 22:14:23 72° E 22:18:37 10° NNE
PSLV R/B 3.7 22:11:47 10° NNE 22:16:28 74° ESE 22:19:10 25° S
NOSS 3-1 (A) 4.1 22:18:34 20° SE 22:20:12 24° ESE 22:24:30 10° ENE
Spot 4 4.2 22:17:54 23° S 22:20:43 55° W 22:25:29 10° NNW
Cosmos 2366 rocket 4.2 22:16:00 10° N 22:22:21 68° ENE 22:26:49 20° SSE
Cosmos 1908 Rocket 4.4 22:18:55 10° N 22:23:11 44° ENE 22:25:58 19° SE
Cosmos 1328 4.2 22:21:51 23° SW 22:23:48 48° WNW 22:27:15 10° N
NOSS 3-1 (C) 3.0 22:21:46 22° SSW 22:24:46 61° SE 22:30:22 10° NE
Cosmos 2327 Rocket 4.4 22:19:10 10° N 22:25:18 87° W 22:29:20 23° S
IRIDIUM 106 4.3 22:20:14 10° N 22:25:30 87° E 22:28:42 24° S
Helios 1B rocket 3.4 22:24:53 21° SW 22:26:17 28° W 22:29:20 10° NW
Cosmos 220 Rocket 4.0 22:23:24 10° NNW 22:27:37 73° ENE 22:30:04 24° SE
USA 308 2.0 22:26:24 20° WSW 22:28:19 82° SSE 22:32:21 10° ENE
Lacrosse 4 Rocket 1.4 22:25:29 10° NW 22:29:43 80° NE 22:32:24 21° SE
Cosmos 1818 4.1 22:30:25 24° S 22:33:13 43° ESE 22:38:21 10° NE
Cosmos 1821 Rocket 4.3 22:29:10 10° N 22:35:11 58° ENE 22:39:42 18° SSE
USA 59 Rocket 2.2 22:34:39 10° WNW 22:36:47 17° NNW 22:38:50 10° NNE
ATLAS 5 CENTAUR R/B 0.8 22:37:18 23° WSW 22:38:56 69° NW 22:42:06 10° NE
Cosmos 1992 Rocket 4.0 22:34:36 10° NNW 22:39:47 73° WSW 22:42:56 24° S
Nadezhda 1 Rocket 4.4 22:36:02 17° SSW 22:40:45 58° WNW 22:46:58 10° N
BREEZE-M DEB (TANK) 2.7 22:36:13 10° WNW 22:41:23 52° SSW 22:42:17 34° SSE
COSMOS 2455 3.3 22:38:34 23° S 22:41:55 45° ESE 22:47:36 10° NE
Cosmos 2218 Rocket 4.0 22:36:40 10° N 22:43:02 84° E 22:47:20 22° SSE
GEOS 3 Rocket 3.7 22:40:59 19° SSE 22:44:58 71° SW 22:50:22 10° NW
Meteor 1-24 Rocket 3.9 22:41:09 22° S 22:45:11 90° ESE 22:51:15 10° NNE
Exosat Rocket 4.5 22:44:00 15° SW 22:49:12 75° WNW 22:57:55 10° NNE
Cosmos 2263 4.3 22:46:13 23° SSW 22:49:46 67° ESE 22:55:27 10° NE
Cosmos 2082 Rocket 4.3 22:49:48 10° WNW 22:52:23 13° W 22:54:58 10° SW
ACS3 Solar Sail 1.9 22:47:30 10° NNE 22:53:06 56° E 22:56:47 22° S
MetOp-A 3.4 22:52:47 30° S 22:54:29 61° WSW 22:58:14 10° NNW
Cosmos 1869 2.8 22:51:57 10° NNW 22:55:25 82° W 22:56:49 34° S
SL-4 R/B 1.2 22:55:57 18° WSW 22:58:12 68° SSE 23:01:19 10° E
Cosmos 2278 Rocket 4.4 22:55:40 10° W 23:00:04 23° NW 23:04:30 10° NNE
Lacrosse 5 rocket 2.7 23:00:50 10° WNW 23:04:05 34° N 23:07:16 10° ENE
SJ 16-02 3.6 23:02:36 10° SE 23:04:47 14° E 23:06:57 10° ENE
ARIANE 5 R/B 4.4 23:05:10 15° SW 23:07:23 21° W 23:10:44 10° NW
Meteor 2-5 Rocket 3.9 23:04:24 21° SSW 23:08:23 72° WNW 23:14:20 10° N
Cosmos 1300 Rocket 3.5 23:04:16 10° N 23:08:38 78° E 23:11:09 24° SSE
SL-8 Rocket 4.3 23:04:17 10° NNW 23:10:17 55° W 23:14:17 21° SSW
NOSS 2-2 (C) 3.8 23:07:29 10° NW 23:10:55 59° NE 23:15:26 10° ESE
CENTAUR R/B 4.0 23:04:22 10° NW 23:11:54 53° NNE 23:20:49 10° ESE
Cosmos 921 Rocket 4.2 23:10:28 19° SE 23:12:32 29° E 23:16:09 10° NE
SL-8 R/B 3.6 23:08:01 10° W 23:12:42 63° S 23:17:24 10° E
CZ-2C R/B 3.5 23:10:54 10° N 23:16:13 57° WNW 23:19:49 19° SW
CZ-2C R/B 3.0 23:16:25 23° SSW 23:19:26 49° W 23:24:36 10° NNW
IDEFIX/ARIANE 42P 4.5 23:16:49 10° NE 23:20:37 20° E 23:24:23 10° SE
Cosmos 1833 4.5 23:16:39 10° NW 23:22:07 52° WSW 23:25:36 22° S
Cosmos 1703 Rocket 3.7 23:26:16 24° SSW 23:28:47 66° WNW 23:33:12 10° N
Cosmos 2228 Rocket 4.1 23:26:00 17° SW 23:28:49 36° WNW 23:32:56 10° N
Landsat 5 3.1 23:26:25 10° NNE 23:30:09 87° ESE 23:32:03 28° SSW
Cosmos 1356 Rocket 4.4 23:26:55 10° NNW 23:30:31 31° W 23:32:18 22° SW
USA 290 4.2 23:28:58 10° WNW 23:30:52 15° WSW 23:31:10 15° WSW
Geosat 4.5 23:26:25 10° NE 23:31:16 47° ESE 23:34:16 22° S
Cosmos 2297 Rocket 3.4 23:27:51 10° NNW 23:33:14 41° NE 23:38:34 10° ESE
OPS 8737 4.0 23:33:12 10° NW 23:36:24 80° SW 23:38:27 19° SE
Cosmos 2369 Rocket 2.9 23:32:23 12° SW 23:37:25 49° NW 23:42:52 10° NNE
ARIANE 6 FM1 Upper Stage 4.0 23:35:20 10° W 23:39:14 38° NNW 23:43:05 10° NE
Cosmos 2297 4.3 23:36:40 13° SW 23:41:42 53° NW 23:47:19 10° NNE
Cosmos 1269 Rocket 4.1 23:41:39 22° S 23:45:07 72° ESE 23:50:24 10° NNE
USA 276 1.8 23:43:19 10° W 23:46:00 55° S 23:48:54 10° ESE
Cosmos 2239 Rocket 4.5 23:41:02 10° NNW 23:47:13 74° W 23:51:49 18° S
USA 215 4.3 23:47:35 19° SSW 23:50:04 23° SW 23:55:06 10° WNW
Cosmos 540 Rocket 3.5 23:45:01 10° NNW 23:50:09 84° ENE 23:55:00 11° SSE
USA 308 3.2 23:47:02 10° W 23:50:30 56° N 23:54:42 10° ENE
Cosmos 2242 Rocket 4.4 23:47:43 16° SSE 23:50:49 43° E 23:55:00 10° NNE
